Year,Month,Day,Hour,Minute,Value (Times are PST for temperature in C)
2009,04,25,00,00,6.10
2009,04,25,00,01,6.00
2009,04,25,00,02,6.00
2009,04,25,00,03,5.90
2009,04,25,00,04,6.00
2009,04,25,00,05,6.00
2009,04,25,00,06,6.00
2009,04,25,00,07,6.00
2009,04,25,00,08,6.00
2009,04,25,00,09,6.00
2009,04,25,00,10,6.00
2009,04,25,00,11,6.00
2009,04,25,00,12,6.00
2009,04,25,00,13,6.10
2009,04,25,00,14,6.10
2009,04,25,00,15,6.10
2009,04,25,00,16,6.10
2009,04,25,00,17,6.20
2009,04,25,00,18,6.20
2009,04,25,00,19,6.20
2009,04,25,00,20,6.20
2009,04,25,00,21,6.20
2009,04,25,00,22,6.10
2009,04,25,00,23,6.10
2009,04,25,00,24,6.10
2009,04,25,00,25,6.10
2009,04,25,00,26,6.10
2009,04,25,00,27,6.10
2009,04,25,00,28,6.10
2009,04,25,00,29,6.10
2009,04,25,00,30,6.20
2009,04,25,00,31,6.20
2009,04,25,00,32,6.20
2009,04,25,00,33,6.20
2009,04,25,00,34,6.20
2009,04,25,00,35,6.20
2009,04,25,00,36,6.20
2009,04,25,00,37,6.20
2009,04,25,00,38,6.20
2009,04,25,00,39,6.20
2009,04,25,00,40,6.20
2009,04,25,00,41,6.20
2009,04,25,00,42,6.10
2009,04,25,00,43,6.10
2009,04,25,00,44,6.10
2009,04,25,00,45,6.10
2009,04,25,00,46,6.10
2009,04,25,00,47,6.00
2009,04,25,00,48,6.00
2009,04,25,00,49,6.00
2009,04,25,00,50,5.90
2009,04,25,00,51,5.90
2009,04,25,00,52,5.90
2009,04,25,00,53,5.90
2009,04,25,00,54,5.90
2009,04,25,00,55,5.80
2009,04,25,00,56,5.80
2009,04,25,00,57,5.80
2009,04,25,00,58,5.70
2009,04,25,00,59,5.70
2009,04,25,01,00,5.70
2009,04,25,01,01,5.70
2009,04,25,01,02,5.60
2009,04,25,01,03,5.70
2009,04,25,01,04,5.60
2009,04,25,01,05,5.60
2009,04,25,01,06,5.60
2009,04,25,01,07,5.60
2009,04,25,01,08,5.50
2009,04,25,01,09,5.50
2009,04,25,01,10,5.50
2009,04,25,01,11,5.50
2009,04,25,01,12,5.50
2009,04,25,01,13,5.50
2009,04,25,01,14,5.60
2009,04,25,01,15,5.60
2009,04,25,01,16,5.50
2009,04,25,01,17,5.50
2009,04,25,01,18,5.50
2009,04,25,01,19,5.40
2009,04,25,01,20,5.40
2009,04,25,01,21,5.40
2009,04,25,01,22,5.40
2009,04,25,01,23,5.30
2009,04,25,01,24,5.30
2009,04,25,01,25,5.30
2009,04,25,01,26,5.30
2009,04,25,01,27,5.30
2009,04,25,01,28,5.30
2009,04,25,01,29,5.20
2009,04,25,01,30,5.20
2009,04,25,01,31,5.20
2009,04,25,01,32,5.20
2009,04,25,01,33,5.20
2009,04,25,01,34,5.10
2009,04,25,01,35,5.10
2009,04,25,01,36,5.10
2009,04,25,01,37,5.10
2009,04,25,01,38,5.10
2009,04,25,01,39,5.10
2009,04,25,01,40,5.10
2009,04,25,01,41,5.10
2009,04,25,01,42,5.10
2009,04,25,01,43,5.10
2009,04,25,01,44,5.10
2009,04,25,01,45,5.10
2009,04,25,01,46,5.10
2009,04,25,01,47,5.10
2009,04,25,01,48,5.10
2009,04,25,01,49,5.10
2009,04,25,01,50,5.10
2009,04,25,01,51,5.00
2009,04,25,01,52,5.00
2009,04,25,01,53,5.00
2009,04,25,01,54,4.90
2009,04,25,01,55,4.90
2009,04,25,01,56,4.90
2009,04,25,01,57,4.90
2009,04,25,01,58,4.90
2009,04,25,01,59,4.90
2009,04,25,02,00,4.90
2009,04,25,02,01,4.90
2009,04,25,02,02,4.90
2009,04,25,02,03,4.90
2009,04,25,02,04,4.90
2009,04,25,02,05,4.90
2009,04,25,02,06,4.90
2009,04,25,02,07,4.80
2009,04,25,02,08,4.80
2009,04,25,02,09,4.80
2009,04,25,02,10,4.80
2009,04,25,02,11,4.70
2009,04,25,02,12,4.70
2009,04,25,02,13,4.70
2009,04,25,02,14,4.70
2009,04,25,02,15,4.70
2009,04,25,02,16,4.60
2009,04,25,02,17,4.60
2009,04,25,02,18,4.60
2009,04,25,02,19,4.60
2009,04,25,02,20,4.60
2009,04,25,02,21,4.60
2009,04,25,02,22,4.60
2009,04,25,02,23,4.50
2009,04,25,02,24,4.50
2009,04,25,02,25,4.50
2009,04,25,02,26,4.50
2009,04,25,02,27,4.50
2009,04,25,02,28,4.50
2009,04,25,02,29,4.50
2009,04,25,02,30,4.50
2009,04,25,02,31,4.50
2009,04,25,02,32,4.50
2009,04,25,02,33,4.50
2009,04,25,02,34,4.50
2009,04,25,02,35,4.50
2009,04,25,02,36,4.50
2009,04,25,02,37,4.50
2009,04,25,02,38,4.50
2009,04,25,02,39,4.50
2009,04,25,02,40,4.50
2009,04,25,02,41,4.50
2009,04,25,02,42,4.50
2009,04,25,02,43,4.50
2009,04,25,02,44,4.50
2009,04,25,02,45,4.50
2009,04,25,02,46,4.50
2009,04,25,02,47,4.40
2009,04,25,02,48,4.40
2009,04,25,02,49,4.40
2009,04,25,02,50,4.40
2009,04,25,02,51,4.40
2009,04,25,02,52,4.40
2009,04,25,02,53,4.40
2009,04,25,02,54,4.40
2009,04,25,02,55,4.40
2009,04,25,02,56,4.40
2009,04,25,02,57,4.40
2009,04,25,02,58,4.40
2009,04,25,02,59,4.40
2009,04,25,03,00,4.30
2009,04,25,03,01,4.30
2009,04,25,03,02,4.30
2009,04,25,03,03,4.30
2009,04,25,03,04,4.30
2009,04,25,03,05,4.30
2009,04,25,03,06,4.30
2009,04,25,03,07,4.30
2009,04,25,03,08,4.30
2009,04,25,03,09,4.20
2009,04,25,03,10,4.20
2009,04,25,03,11,4.20
2009,04,25,03,12,4.20
2009,04,25,03,13,4.20
2009,04,25,03,14,4.20
2009,04,25,03,15,4.20
2009,04,25,03,16,4.10
2009,04,25,03,17,4.10
2009,04,25,03,18,4.10
2009,04,25,03,19,4.10
2009,04,25,03,20,4.10
2009,04,25,03,21,4.10
2009,04,25,03,22,4.10
2009,04,25,03,23,4.00
2009,04,25,03,24,4.00
2009,04,25,03,25,4.00
2009,04,25,03,26,3.90
2009,04,25,03,27,3.90
2009,04,25,03,28,3.90
2009,04,25,03,29,3.90
2009,04,25,03,30,3.90
2009,04,25,03,31,3.80
2009,04,25,03,32,3.80
2009,04,25,03,33,3.80
2009,04,25,03,34,3.80
2009,04,25,03,35,3.80
2009,04,25,03,36,3.80
2009,04,25,03,37,3.80
2009,04,25,03,38,3.80
2009,04,25,03,39,3.70
2009,04,25,03,40,3.70
2009,04,25,03,41,3.70
2009,04,25,03,42,3.70
2009,04,25,03,43,3.70
2009,04,25,03,44,3.70
2009,04,25,03,45,3.70
2009,04,25,03,46,3.70
2009,04,25,03,47,3.70
2009,04,25,03,48,3.70
2009,04,25,03,49,3.70
2009,04,25,03,50,3.70
2009,04,25,03,51,3.70
2009,04,25,03,52,3.70
2009,04,25,03,53,3.70
2009,04,25,03,54,3.70
2009,04,25,03,55,3.70
2009,04,25,03,56,3.70
2009,04,25,03,57,3.70
2009,04,25,03,58,3.70
2009,04,25,03,59,3.70
2009,04,25,04,00,3.70
2009,04,25,04,01,3.70
2009,04,25,04,02,3.70
2009,04,25,04,03,3.70
2009,04,25,04,04,3.70
2009,04,25,04,05,3.70
2009,04,25,04,06,3.70
2009,04,25,04,07,3.70
2009,04,25,04,08,3.70
2009,04,25,04,09,3.70
2009,04,25,04,10,3.70
2009,04,25,04,11,3.70
2009,04,25,04,12,3.70
2009,04,25,04,13,3.70
2009,04,25,04,14,3.70
2009,04,25,04,15,3.70
2009,04,25,04,16,3.70
2009,04,25,04,17,3.70
2009,04,25,04,18,3.70
2009,04,25,04,19,3.70
2009,04,25,04,20,3.70
2009,04,25,04,21,3.70
2009,04,25,04,22,3.70
2009,04,25,04,23,3.70
2009,04,25,04,24,3.70
2009,04,25,04,25,3.70
2009,04,25,04,26,3.70
2009,04,25,04,27,3.70
2009,04,25,04,28,3.70
2009,04,25,04,29,3.70
2009,04,25,04,30,3.70
2009,04,25,04,31,3.70
2009,04,25,04,32,3.70
2009,04,25,04,33,3.70
2009,04,25,04,34,3.70
2009,04,25,04,35,3.70
2009,04,25,04,36,3.70
2009,04,25,04,37,3.70
2009,04,25,04,38,3.70
2009,04,25,04,39,3.70
2009,04,25,04,40,3.70
2009,04,25,04,41,3.70
2009,04,25,04,42,3.70
2009,04,25,04,43,3.70
2009,04,25,04,44,3.70
2009,04,25,04,45,3.70
2009,04,25,04,46,3.70
2009,04,25,04,47,3.70
2009,04,25,04,48,3.70
2009,04,25,04,49,3.70
2009,04,25,04,50,3.70
2009,04,25,04,51,3.70
2009,04,25,04,52,3.70
2009,04,25,04,53,3.70
2009,04,25,04,54,3.70
2009,04,25,04,55,3.70
2009,04,25,04,56,3.60
2009,04,25,04,57,3.60
2009,04,25,04,58,3.60
2009,04,25,04,59,3.60
2009,04,25,05,00,3.60
2009,04,25,05,01,3.60
2009,04,25,05,02,3.60
2009,04,25,05,03,3.60
2009,04,25,05,04,3.60
2009,04,25,05,05,3.50
2009,04,25,05,06,3.50
2009,04,25,05,07,3.50
2009,04,25,05,08,3.50
2009,04,25,05,09,3.50
2009,04,25,05,10,3.40
2009,04,25,05,11,3.40
2009,04,25,05,12,3.40
2009,04,25,05,13,3.40
2009,04,25,05,14,3.30
2009,04,25,05,15,3.30
2009,04,25,05,16,3.30
2009,04,25,05,17,3.30
2009,04,25,05,18,3.30
2009,04,25,05,19,3.30
2009,04,25,05,20,3.20
2009,04,25,05,21,3.20
2009,04,25,05,22,3.20
2009,04,25,05,23,3.20
2009,04,25,05,24,3.20
2009,04,25,05,25,3.20
2009,04,25,05,26,3.20
2009,04,25,05,27,3.20
2009,04,25,05,28,3.10
2009,04,25,05,29,3.10
2009,04,25,05,30,3.10
2009,04,25,05,31,3.10
2009,04,25,05,32,3.10
2009,04,25,05,33,3.10
2009,04,25,05,34,3.10
2009,04,25,05,35,3.10
2009,04,25,05,36,3.00
2009,04,25,05,37,3.00
2009,04,25,05,38,3.00
2009,04,25,05,39,3.00
2009,04,25,05,40,3.00
2009,04,25,05,41,3.00
2009,04,25,05,42,2.90
2009,04,25,05,43,2.90
2009,04,25,05,44,2.90
2009,04,25,05,45,2.90
2009,04,25,05,46,2.90
2009,04,25,05,47,2.90
2009,04,25,05,48,2.90
2009,04,25,05,49,2.90
2009,04,25,05,50,2.90
2009,04,25,05,51,2.90
2009,04,25,05,52,2.80
2009,04,25,05,53,2.80
2009,04,25,05,54,2.80
2009,04,25,05,55,2.80
2009,04,25,05,56,2.80
2009,04,25,05,57,2.80
2009,04,25,05,58,2.80
2009,04,25,05,59,2.80
2009,04,25,06,00,2.80
2009,04,25,06,01,2.80
2009,04,25,06,02,2.80
2009,04,25,06,03,2.80
2009,04,25,06,04,2.80
2009,04,25,06,05,2.80
2009,04,25,06,06,2.70
2009,04,25,06,07,2.70
2009,04,25,06,08,2.70
2009,04,25,06,09,2.70
2009,04,25,06,10,2.70
2009,04,25,06,11,2.80
2009,04,25,06,12,2.80
2009,04,25,06,13,2.80
2009,04,25,06,14,2.80
2009,04,25,06,15,2.80
2009,04,25,06,16,2.80
2009,04,25,06,17,2.80
2009,04,25,06,18,2.80
2009,04,25,06,19,2.80
2009,04,25,06,20,2.80
2009,04,25,06,21,2.80
2009,04,25,06,22,2.80
2009,04,25,06,23,2.80
2009,04,25,06,24,2.80
2009,04,25,06,25,2.80
2009,04,25,06,26,2.80
2009,04,25,06,27,2.80
2009,04,25,06,28,2.80
2009,04,25,06,29,2.90
2009,04,25,06,30,2.90
2009,04,25,06,31,2.90
2009,04,25,06,32,2.90
2009,04,25,06,33,2.90
2009,04,25,06,34,2.90
2009,04,25,06,35,3.00
2009,04,25,06,36,3.00
2009,04,25,06,37,3.00
2009,04,25,06,38,3.10
2009,04,25,06,39,3.10
2009,04,25,06,40,3.10
2009,04,25,06,41,3.10
2009,04,25,06,42,3.10
2009,04,25,06,43,3.10
2009,04,25,06,44,3.10
2009,04,25,06,45,3.20
2009,04,25,06,46,3.20
2009,04,25,06,47,3.20
2009,04,25,06,48,3.20
2009,04,25,06,49,3.20
2009,04,25,06,50,3.20
2009,04,25,06,51,3.20
2009,04,25,06,52,3.30
2009,04,25,06,53,3.30
2009,04,25,06,54,3.30
2009,04,25,06,55,3.30
2009,04,25,06,56,3.30
2009,04,25,06,57,3.40
2009,04,25,06,58,3.40
2009,04,25,06,59,3.40
2009,04,25,07,00,3.40
2009,04,25,07,01,3.40
2009,04,25,07,02,3.50
2009,04,25,07,03,3.50
2009,04,25,07,04,3.50
2009,04,25,07,05,3.50
2009,04,25,07,06,3.60
2009,04,25,07,07,3.60
2009,04,25,07,08,3.60
2009,04,25,07,09,3.60
2009,04,25,07,10,3.70
2009,04,25,07,11,3.70
2009,04,25,07,12,3.70
2009,04,25,07,13,3.70
2009,04,25,07,14,3.70
2009,04,25,07,15,3.80
2009,04,25,07,16,3.80
2009,04,25,07,17,3.80
2009,04,25,07,18,3.80
2009,04,25,07,19,3.80
2009,04,25,07,20,3.80
2009,04,25,07,21,3.80
2009,04,25,07,22,3.90
2009,04,25,07,23,3.90
2009,04,25,07,24,3.90
2009,04,25,07,25,3.90
2009,04,25,07,26,3.90
2009,04,25,07,27,3.90
2009,04,25,07,28,3.90
2009,04,25,07,29,4.00
2009,04,25,07,30,4.00
2009,04,25,07,31,4.10
2009,04,25,07,32,4.10
2009,04,25,07,33,4.10
2009,04,25,07,34,4.10
2009,04,25,07,35,4.20
2009,04,25,07,36,4.20
2009,04,25,07,37,4.20
2009,04,25,07,38,4.20
2009,04,25,07,39,4.20
2009,04,25,07,40,4.20
2009,04,25,07,41,4.30
2009,04,25,07,42,4.30
2009,04,25,07,43,4.30
2009,04,25,07,44,4.40
2009,04,25,07,45,4.40
2009,04,25,07,46,4.40
2009,04,25,07,47,4.50
2009,04,25,07,48,4.50
2009,04,25,07,49,4.50
2009,04,25,07,50,4.60
2009,04,25,07,51,4.60
2009,04,25,07,52,4.60
2009,04,25,07,53,4.70
2009,04,25,07,54,4.70
2009,04,25,07,55,4.70
2009,04,25,07,56,4.70
2009,04,25,07,57,4.80
2009,04,25,07,58,4.80
2009,04,25,07,59,4.80
2009,04,25,08,00,4.80
2009,04,25,08,01,4.80
2009,04,25,08,02,4.90
2009,04,25,08,03,4.90
2009,04,25,08,04,4.90
2009,04,25,08,05,4.90
2009,04,25,08,06,4.90
2009,04,25,08,07,4.90
2009,04,25,08,08,4.90
2009,04,25,08,09,4.90
2009,04,25,08,10,4.90
2009,04,25,08,11,4.90
2009,04,25,08,12,4.90
2009,04,25,08,13,4.90
2009,04,25,08,14,4.90
2009,04,25,08,15,4.90
2009,04,25,08,16,4.90
2009,04,25,08,17,4.90
2009,04,25,08,18,4.90
2009,04,25,08,19,4.90
2009,04,25,08,20,4.90
2009,04,25,08,21,4.90
2009,04,25,08,22,4.90
2009,04,25,08,23,5.00
2009,04,25,08,24,5.00
2009,04,25,08,25,5.00
2009,04,25,08,26,5.00
2009,04,25,08,27,5.00
2009,04,25,08,28,5.00
2009,04,25,08,29,5.00
2009,04,25,08,30,5.10
2009,04,25,08,31,5.10
2009,04,25,08,32,5.10
2009,04,25,08,33,5.10
2009,04,25,08,34,5.10
2009,04,25,08,35,5.10
2009,04,25,08,36,5.10
2009,04,25,08,37,5.20
2009,04,25,08,38,5.20
2009,04,25,08,39,5.20
2009,04,25,08,40,5.20
2009,04,25,08,41,5.20
2009,04,25,08,42,5.30
2009,04,25,08,43,5.30
2009,04,25,08,44,5.30
2009,04,25,08,45,5.30
2009,04,25,08,46,5.40
2009,04,25,08,47,5.40
2009,04,25,08,48,5.40
2009,04,25,08,49,5.40
2009,04,25,08,50,5.50
2009,04,25,08,51,5.50
2009,04,25,08,52,5.60
2009,04,25,08,53,5.60
2009,04,25,08,54,5.60
2009,04,25,08,55,5.60
2009,04,25,08,56,5.70
2009,04,25,08,57,5.70
2009,04,25,08,58,5.70
2009,04,25,08,59,5.80
2009,04,25,09,00,5.80
2009,04,25,09,01,5.90
2009,04,25,09,02,5.90
2009,04,25,09,03,5.90
2009,04,25,09,04,6.00
2009,04,25,09,05,6.00
2009,04,25,09,06,6.10
2009,04,25,09,07,6.20
2009,04,25,09,08,6.30
2009,04,25,09,09,6.30
2009,04,25,09,10,6.40
2009,04,25,09,11,6.50
2009,04,25,09,12,6.60
2009,04,25,09,13,6.70
2009,04,25,09,14,6.80
2009,04,25,09,15,6.90
2009,04,25,09,16,6.90
2009,04,25,09,17,7.00
2009,04,25,09,18,7.10
2009,04,25,09,19,7.20
2009,04,25,09,20,7.20
2009,04,25,09,21,7.30
2009,04,25,09,22,7.30
2009,04,25,09,23,7.40
2009,04,25,09,24,7.50
2009,04,25,09,25,7.50
2009,04,25,09,26,7.60
2009,04,25,09,27,7.70
2009,04,25,09,28,7.80
2009,04,25,09,29,7.80
2009,04,25,09,30,7.90
2009,04,25,09,31,7.90
2009,04,25,09,32,8.00
2009,04,25,09,33,8.00
2009,04,25,09,34,8.10
2009,04,25,09,35,8.20
2009,04,25,09,36,8.20
2009,04,25,09,37,8.30
2009,04,25,09,38,8.30
2009,04,25,09,39,8.40
2009,04,25,09,40,8.40
2009,04,25,09,41,8.40
2009,04,25,09,42,8.50
2009,04,25,09,43,8.50
2009,04,25,09,44,8.50
2009,04,25,09,45,8.60
2009,04,25,09,46,8.60
2009,04,25,09,47,8.60
2009,04,25,09,48,8.60
2009,04,25,09,49,8.70
2009,04,25,09,50,8.70
2009,04,25,09,51,8.70
2009,04,25,09,52,8.70
2009,04,25,09,53,8.70
2009,04,25,09,54,8.70
2009,04,25,09,55,8.70
2009,04,25,09,56,8.70
2009,04,25,09,57,8.70
2009,04,25,09,58,8.70
2009,04,25,09,59,8.70
2009,04,25,10,00,8.70
2009,04,25,10,01,8.80
2009,04,25,10,02,8.80
2009,04,25,10,03,8.80
2009,04,25,10,04,8.80
2009,04,25,10,05,8.80
2009,04,25,10,06,8.80
2009,04,25,10,07,8.80
2009,04,25,10,08,8.80
2009,04,25,10,09,8.90
2009,04,25,10,10,8.90
2009,04,25,10,11,8.90
2009,04,25,10,12,9.00
2009,04,25,10,13,9.00
2009,04,25,10,14,9.10
2009,04,25,10,15,9.10
2009,04,25,10,16,9.10
2009,04,25,10,17,9.20
2009,04,25,10,18,9.20
2009,04,25,10,19,9.30
2009,04,25,10,20,9.40
2009,04,25,10,21,9.50
2009,04,25,10,22,9.50
2009,04,25,10,23,9.60
2009,04,25,10,24,9.70
2009,04,25,10,25,9.70
2009,04,25,10,26,9.80
2009,04,25,10,27,9.80
2009,04,25,10,28,9.80
2009,04,25,10,29,9.80
2009,04,25,10,30,9.80
2009,04,25,10,31,9.80
2009,04,25,10,32,9.80
2009,04,25,10,33,9.80
2009,04,25,10,34,9.80
2009,04,25,10,35,9.80
2009,04,25,10,36,9.80
2009,04,25,10,37,9.80
2009,04,25,10,38,9.80
2009,04,25,10,39,9.80
2009,04,25,10,40,9.80
2009,04,25,10,41,9.80
2009,04,25,10,42,9.70
2009,04,25,10,43,9.70
2009,04,25,10,44,9.70
2009,04,25,10,45,9.70
2009,04,25,10,46,9.70
2009,04,25,10,47,9.70
2009,04,25,10,48,9.70
2009,04,25,10,49,9.80
2009,04,25,10,50,9.80
2009,04,25,10,51,9.90
2009,04,25,10,52,9.90
2009,04,25,10,53,10.00
2009,04,25,10,54,10.10
2009,04,25,10,55,10.10
2009,04,25,10,56,10.20
2009,04,25,10,57,10.20
2009,04,25,10,58,10.30
2009,04,25,10,59,10.30
2009,04,25,11,00,10.30
2009,04,25,11,01,10.30
2009,04,25,11,02,10.30
2009,04,25,11,03,10.30
2009,04,25,11,04,10.30
2009,04,25,11,05,10.30
2009,04,25,11,06,10.30
2009,04,25,11,07,10.30
2009,04,25,11,08,10.30
2009,04,25,11,09,10.30
2009,04,25,11,10,10.30
2009,04,25,11,11,10.30
2009,04,25,11,12,10.20
2009,04,25,11,13,10.20
2009,04,25,11,14,10.20
2009,04,25,11,15,10.20
2009,04,25,11,16,10.20
2009,04,25,11,17,10.30
2009,04,25,11,18,10.30
2009,04,25,11,19,10.30
2009,04,25,11,20,10.30
2009,04,25,11,21,10.40
2009,04,25,11,22,10.50
2009,04,25,11,23,10.60
2009,04,25,11,24,10.70
2009,04,25,11,25,10.80
2009,04,25,11,26,10.90
2009,04,25,11,27,10.90
2009,04,25,11,28,11.00
2009,04,25,11,29,11.10
2009,04,25,11,30,11.10
2009,04,25,11,31,11.20
2009,04,25,11,32,11.20
2009,04,25,11,33,11.30
2009,04,25,11,34,11.30
2009,04,25,11,35,11.30
2009,04,25,11,36,11.40
2009,04,25,11,37,11.40
2009,04,25,11,38,11.50
2009,04,25,11,39,11.50
2009,04,25,11,40,11.50
2009,04,25,11,41,11.60
2009,04,25,11,42,11.70
2009,04,25,11,43,11.70
2009,04,25,11,44,11.70
2009,04,25,11,45,11.70
2009,04,25,11,46,11.70
2009,04,25,11,47,11.70
2009,04,25,11,48,11.60
2009,04,25,11,49,11.60
2009,04,25,11,50,11.60
2009,04,25,11,51,11.50
2009,04,25,11,52,11.40
2009,04,25,11,53,11.30
2009,04,25,11,54,11.30
2009,04,25,11,55,11.20
2009,04,25,11,56,11.20
2009,04,25,11,57,11.20
2009,04,25,11,58,11.10
2009,04,25,11,59,11.10
2009,04,25,12,00,11.10
2009,04,25,12,01,11.00
2009,04,25,12,02,11.00
2009,04,25,12,03,10.90
2009,04,25,12,04,10.90
2009,04,25,12,05,10.80
2009,04,25,12,06,10.80
2009,04,25,12,07,10.70
2009,04,25,12,08,10.70
2009,04,25,12,09,10.70
2009,04,25,12,10,10.70
2009,04,25,12,11,10.60
2009,04,25,12,12,10.60
2009,04,25,12,13,10.50
2009,04,25,12,14,10.40
2009,04,25,12,15,10.40
2009,04,25,12,16,10.30
2009,04,25,12,17,10.20
2009,04,25,12,18,10.20
2009,04,25,12,19,10.10
2009,04,25,12,20,10.10
2009,04,25,12,21,10.10
2009,04,25,12,22,10.00
2009,04,25,12,23,10.00
2009,04,25,12,24,10.00
2009,04,25,12,25,9.90
2009,04,25,12,26,9.90
2009,04,25,12,27,9.90
2009,04,25,12,28,9.90
2009,04,25,12,29,9.90
2009,04,25,12,30,9.90
2009,04,25,12,31,9.90
2009,04,25,12,32,9.90
2009,04,25,12,33,9.90
2009,04,25,12,34,9.90
2009,04,25,12,35,9.90
2009,04,25,12,36,9.90
2009,04,25,12,37,9.90
2009,04,25,12,38,9.90
2009,04,25,12,39,9.90
2009,04,25,12,40,9.80
2009,04,25,12,41,9.80
2009,04,25,12,42,9.80
2009,04,25,12,43,9.80
2009,04,25,12,44,9.80
2009,04,25,12,45,9.80
2009,04,25,12,46,9.80
2009,04,25,12,47,9.80
2009,04,25,12,48,9.80
2009,04,25,12,49,9.80
2009,04,25,12,50,9.90
2009,04,25,12,51,9.90
2009,04,25,12,52,10.00
2009,04,25,12,53,10.10
2009,04,25,12,54,10.20
2009,04,25,12,55,10.30
2009,04,25,12,56,10.40
2009,04,25,12,57,10.40
2009,04,25,12,58,10.50
2009,04,25,12,59,10.50
2009,04,25,13,00,10.60
2009,04,25,13,01,10.60
2009,04,25,13,02,10.60
2009,04,25,13,03,10.60
2009,04,25,13,04,10.60
2009,04,25,13,05,10.60
2009,04,25,13,06,10.70
2009,04,25,13,07,10.70
2009,04,25,13,08,10.70
2009,04,25,13,09,10.80
2009,04,25,13,10,10.90
2009,04,25,13,11,11.00
2009,04,25,13,12,11.10
2009,04,25,13,13,11.10
2009,04,25,13,14,11.10
2009,04,25,13,15,11.10
2009,04,25,13,16,11.10
2009,04,25,13,17,11.10
2009,04,25,13,18,11.10
2009,04,25,13,19,11.00
2009,04,25,13,20,11.10
2009,04,25,13,21,11.10
2009,04,25,13,22,11.10
2009,04,25,13,23,11.10
2009,04,25,13,24,11.10
2009,04,25,13,25,11.20
2009,04,25,13,26,11.20
2009,04,25,13,27,11.20
2009,04,25,13,28,11.30
2009,04,25,13,29,11.40
2009,04,25,13,30,11.60
2009,04,25,13,31,11.70
2009,04,25,13,32,11.80
2009,04,25,13,33,11.80
2009,04,25,13,34,11.80
2009,04,25,13,35,11.90
2009,04,25,13,36,12.00
2009,04,25,13,37,12.10
2009,04,25,13,38,12.20
2009,04,25,13,39,12.20
2009,04,25,13,40,12.30
2009,04,25,13,41,12.30
2009,04,25,13,42,12.40
2009,04,25,13,43,12.50
2009,04,25,13,44,12.60
2009,04,25,13,45,12.60
2009,04,25,13,46,12.60
2009,04,25,13,47,12.70
2009,04,25,13,48,12.80
2009,04,25,13,49,12.80
2009,04,25,13,50,12.80
2009,04,25,13,51,12.90
2009,04,25,13,52,12.90
2009,04,25,13,53,13.00
2009,04,25,13,54,13.10
2009,04,25,13,55,13.20
2009,04,25,13,56,13.20
2009,04,25,13,57,13.30
2009,04,25,13,58,13.40
2009,04,25,13,59,13.60
2009,04,25,14,00,13.60
2009,04,25,14,01,13.70
2009,04,25,14,02,13.80
2009,04,25,14,03,13.90
2009,04,25,14,04,13.90
2009,04,25,14,05,13.90
2009,04,25,14,06,13.90
2009,04,25,14,07,13.90
2009,04,25,14,08,13.90
2009,04,25,14,09,13.80
2009,04,25,14,10,13.80
2009,04,25,14,11,13.80
2009,04,25,14,12,13.80
2009,04,25,14,13,13.80
2009,04,25,14,14,13.70
2009,04,25,14,15,13.60
2009,04,25,14,16,13.50
2009,04,25,14,17,13.40
2009,04,25,14,18,13.40
2009,04,25,14,19,13.30
2009,04,25,14,20,13.30
2009,04,25,14,21,13.20
2009,04,25,14,22,13.20
2009,04,25,14,23,13.20
2009,04,25,14,24,13.10
2009,04,25,14,25,13.10
2009,04,25,14,26,13.10
2009,04,25,14,27,13.10
2009,04,25,14,28,13.20
2009,04,25,14,29,13.20
2009,04,25,14,30,13.20
2009,04,25,14,31,13.20
2009,04,25,14,32,13.20
2009,04,25,14,33,13.20
2009,04,25,14,34,13.20
2009,04,25,14,35,13.30
2009,04,25,14,36,13.30
2009,04,25,14,37,13.30
2009,04,25,14,38,13.40
2009,04,25,14,39,13.50
2009,04,25,14,40,13.60
2009,04,25,14,41,13.80
2009,04,25,14,42,13.90
2009,04,25,14,43,13.90
2009,04,25,14,44,13.90
2009,04,25,14,45,14.00
2009,04,25,14,46,14.10
2009,04,25,14,47,14.10
2009,04,25,14,48,14.10
2009,04,25,14,49,14.10
2009,04,25,14,50,14.10
2009,04,25,14,51,14.10
2009,04,25,14,52,14.10
2009,04,25,14,53,14.20
2009,04,25,14,54,14.20
2009,04,25,14,55,14.10
2009,04,25,14,56,14.10
2009,04,25,14,57,14.10
2009,04,25,14,58,14.00
2009,04,25,14,59,13.90
2009,04,25,15,00,13.90
2009,04,25,15,01,13.90
2009,04,25,15,02,13.90
2009,04,25,15,03,14.00
2009,04,25,15,04,14.00
2009,04,25,15,05,14.10
2009,04,25,15,06,14.20
2009,04,25,15,07,14.20
2009,04,25,15,08,14.30
2009,04,25,15,09,14.20
2009,04,25,15,10,14.20
2009,04,25,15,11,14.20
2009,04,25,15,12,14.20
2009,04,25,15,13,14.30
2009,04,25,15,14,14.30
2009,04,25,15,15,14.30
2009,04,25,15,16,14.40
2009,04,25,15,17,14.40
2009,04,25,15,18,14.30
2009,04,25,15,19,14.30
2009,04,25,15,20,14.30
2009,04,25,15,21,14.30
2009,04,25,15,22,14.30
2009,04,25,15,23,14.30
2009,04,25,15,24,14.30
2009,04,25,15,25,14.40
2009,04,25,15,26,14.40
2009,04,25,15,27,14.40
2009,04,25,15,28,14.30
2009,04,25,15,29,14.30
2009,04,25,15,30,14.30
2009,04,25,15,31,14.40
2009,04,25,15,32,14.40
2009,04,25,15,33,14.30
2009,04,25,15,34,14.30
2009,04,25,15,35,14.30
2009,04,25,15,36,14.20
2009,04,25,15,37,14.20
2009,04,25,15,38,14.20
2009,04,25,15,39,14.20
2009,04,25,15,40,14.30
2009,04,25,15,41,14.30
2009,04,25,15,42,14.40
2009,04,25,15,43,14.50
2009,04,25,15,44,14.50
2009,04,25,15,45,14.50
2009,04,25,15,46,14.50
2009,04,25,15,47,14.50
2009,04,25,15,48,14.60
2009,04,25,15,49,14.70
2009,04,25,15,50,14.80
2009,04,25,15,51,14.80
2009,04,25,15,52,14.80
2009,04,25,15,53,14.80
2009,04,25,15,54,14.90
2009,04,25,15,55,15.00
2009,04,25,15,56,15.00
2009,04,25,15,57,15.00
2009,04,25,15,58,15.00
2009,04,25,15,59,14.90
2009,04,25,16,00,14.70
2009,04,25,16,01,14.50
2009,04,25,16,02,14.40
2009,04,25,16,03,14.30
2009,04,25,16,04,14.20
2009,04,25,16,05,14.20
2009,04,25,16,06,14.20
2009,04,25,16,07,14.20
2009,04,25,16,08,14.20
2009,04,25,16,09,14.20
2009,04,25,16,10,14.30
2009,04,25,16,11,14.30
2009,04,25,16,12,14.30
2009,04,25,16,13,14.30
2009,04,25,16,14,14.20
2009,04,25,16,15,14.20
2009,04,25,16,16,14.00
2009,04,25,16,17,13.90
2009,04,25,16,18,13.80
2009,04,25,16,19,13.80
2009,04,25,16,20,13.70
2009,04,25,16,21,13.70
2009,04,25,16,22,13.70
2009,04,25,16,23,13.70
2009,04,25,16,24,13.80
2009,04,25,16,25,13.90
2009,04,25,16,26,13.90
2009,04,25,16,27,14.00
2009,04,25,16,28,14.10
2009,04,25,16,29,14.10
2009,04,25,16,30,14.10
2009,04,25,16,31,14.00
2009,04,25,16,32,14.00
2009,04,25,16,33,13.90
2009,04,25,16,34,13.90
2009,04,25,16,35,13.90
2009,04,25,16,36,13.90
2009,04,25,16,37,13.90
2009,04,25,16,38,14.00
2009,04,25,16,39,14.00
2009,04,25,16,40,14.10
2009,04,25,16,41,14.20
2009,04,25,16,42,14.20
2009,04,25,16,43,14.30
2009,04,25,16,44,14.30
2009,04,25,16,45,14.30
2009,04,25,16,46,14.30
2009,04,25,16,47,14.30
2009,04,25,16,48,14.40
2009,04,25,16,49,14.40
2009,04,25,16,50,14.50
2009,04,25,16,51,14.60
2009,04,25,16,52,14.60
2009,04,25,16,53,14.70
2009,04,25,16,54,14.70
2009,04,25,16,55,14.80
2009,04,25,16,56,14.80
2009,04,25,16,57,14.80
2009,04,25,16,58,14.70
2009,04,25,16,59,14.70
2009,04,25,17,00,14.70
2009,04,25,17,01,14.70
2009,04,25,17,02,14.60
2009,04,25,17,03,14.60
2009,04,25,17,04,14.70
2009,04,25,17,05,14.60
2009,04,25,17,06,14.50
2009,04,25,17,07,14.50
2009,04,25,17,08,14.50
2009,04,25,17,09,14.50
2009,04,25,17,10,14.40
2009,04,25,17,11,14.30
2009,04,25,17,12,14.30
2009,04,25,17,13,14.30
2009,04,25,17,14,14.20
2009,04,25,17,15,14.20
2009,04,25,17,16,14.00
2009,04,25,17,17,13.90
2009,04,25,17,18,13.80
2009,04,25,17,19,13.70
2009,04,25,17,20,13.60
2009,04,25,17,21,13.50
2009,04,25,17,22,13.40
2009,04,25,17,23,13.30
2009,04,25,17,24,13.20
2009,04,25,17,25,13.10
2009,04,25,17,26,13.10
2009,04,25,17,27,13.00
2009,04,25,17,28,13.00
2009,04,25,17,29,13.00
2009,04,25,17,30,13.10
2009,04,25,17,31,13.10
2009,04,25,17,32,13.30
2009,04,25,17,33,13.30
2009,04,25,17,34,13.30
2009,04,25,17,35,13.40
2009,04,25,17,36,13.50
2009,04,25,17,37,13.60
2009,04,25,17,38,13.70
2009,04,25,17,39,13.70
2009,04,25,17,40,13.80
2009,04,25,17,41,13.70
2009,04,25,17,42,13.80
2009,04,25,17,43,13.80
2009,04,25,17,44,13.80
2009,04,25,17,45,13.90
2009,04,25,17,46,14.00
2009,04,25,17,47,14.00
2009,04,25,17,48,14.00
2009,04,25,17,49,14.00